Simultaneous Nadir Overpasses (SNOs) Predictions

Prediction of SNOs between TERRA and METOP-C Satellite Orbit:

Table of predicted SNOs for the next 14.0 days since TLE Epoch: 3/5/2022
Index Date (TERRA) Time (TERRA) Lat,Lon (TERRA) SZA (TERRA ) Date (METOP-C) Time (METOP-C) Lat,Lon (METOP-C) SZA (METOP-C ) Distance(km) Time Diff (sec)
1 03/06/2022 09:01:03 -81.19, -92.92 91.24 03/06/2022 08:59:53 -81.19, -92.91 91.27 0.21 70
2 03/06/2022 09:50:29 81.20, 74.82 88.76 03/06/2022 09:50:32 81.20, 74.70 88.76 2.06 3
3 03/09/2022 04:35:14 -81.20, -26.46 92.31 03/09/2022 04:34:16 -81.20, -26.39 92.33 1.11 58
4 03/09/2022 05:24:40 81.20, 141.25 87.69 03/09/2022 05:24:55 81.20, 141.22 87.69 0.64 15
5 03/12/2022 00:09:25 -81.19, 39.90 93.41 03/12/2022 00:08:39 -81.20, 40.09 93.40 3.26 46
6 03/12/2022 00:58:50 81.22,-152.05 86.64 03/12/2022 00:59:17 81.22,-151.90 86.67 2.46 27
7 03/14/2022 19:43:35 -81.20, 106.53 94.47 03/14/2022 19:43:02 -81.20, 106.54 94.48 0.48 33
8 03/14/2022 20:33:01 81.21, -85.81 85.53 03/14/2022 20:33:41 81.21, -85.82 85.55 0.40 40
9 03/17/2022 15:17:45 -81.19, 172.70 95.60 03/17/2022 15:17:25 -81.19, 172.57 95.62 2.24 20



Historial Predications of SNOs between TERRA and METOP-C
